Regional Weather Roundup
Issued by NWS

Home | Current Version | Previous Version | Text Only | Print | Product List | Glossary On
Versions: 1 2 3 4 5 6 7 8 9 10 11 12 13 14 15 16 17 18 19 20 21 22 23 24 25 26 27 28 29 30 31 32 33 34 35 36 37 38 39 40 41 42 43 44 45 46 47 48 49 50
000
ASUS44 KMEG 060810
RWRTN
TENNESSEE HOURLY STATE WEATHER ROUNDUP
NATIONAL WEATHER SERVICE MEMPHIS TN
200 AM CST TUE DEC 06 2016

TNZ002-004-019-021-049-052-054-088>092-060900-
WEST TENNESSEE

CITY           SKY/WX    TMP DP  RH WIND       PRES   REMARKS
MEMPHIS INTL   TSTM      47  47 100 CALM      29.64F FOG
NWS MEMPHIS      N/A     46 N/A N/A MISG        N/A
JACKSON        CLOUDY    47  47 100 E8        29.65F
DYERSBURG      CLOUDY   N/A N/A N/A NE7       29.65F
UNION CITY     CLOUDY    43  43 100 NE5       29.67F
PARIS          CLOUDY    43  41  93 E3        29.68F
LEXINGTON      CLOUDY    46  46 100 E8        29.63F
$$

TNZ008-025-027-028-033-062-065-066-060900-
NORTH MIDDLE TENNESSEE

CITY           SKY/WX    TMP DP  RH WIND       PRES   REMARKS
NASHVILLE      LGT RAIN  49  46  90 SE5       29.72R
CLARKSVILLE    LGT RAIN  45  43  93 CALM      29.70S FOG
SMYRNA         LGT RAIN  48  48 100 NW3       29.72R
CROSSVILLE     LGT RAIN  51  50  96 VRB7      29.78F
$$

TNZ061-075-076-078-094-096-097-060900-
SOUTH MIDDLE TENNESSEE

CITY           SKY/WX    TMP DP  RH WIND       PRES   REMARKS
TULLAHOMA      CLOUDY    54  52  94 SE7       29.73R
WINCHESTER     CLOUDY    54  54 100 SE16      29.71F
MCMINNVILLE    MOCLDY    55  55 100 S5        29.73F
COLUMBIA       CLOUDY   N/A N/A N/A NE3       29.68F
SHELBYVILLE    CLOUDY    57  55  94 S8        29.72R
$$

TNZ017-018-042-046-047-060900-
NORTHEAST TENNESSEE

CITY           SKY/WX    TMP DP  RH WIND       PRES   REMARKS
TRI CITIES     LGT RAIN  50  43  77 SE12      29.86R
$$

TNZ012-013-036-069-073-074-060900-
CENTRAL EAST TENNESSEE

CITY           SKY/WX    TMP DP  RH WIND       PRES   REMARKS
KNOXVILLE      LGT RAIN  49  47  93 SW3       29.79R FOG
OAK RIDGE      LGT RAIN  50  47  89 CALM      29.81R
GATLINBURG     MOCLDY    46  46 100 CALM      29.78S
$$

TNZ083-085-099-060900-
SOUTHEAST TENNESSEE

CITY           SKY/WX    TMP DP  RH WIND       PRES   REMARKS
CHATTANOOGA    RAIN      51  49  92 CALM      29.80R FOG
$$

SKY/WX REPORTED AS FAIR MEANS FEW OR NO CLOUDS BELOW
12 THOUSAND FEET.




USA.gov is the U.S. government's official web portal to all federal, state and local government web resources and services.